Showing default

CENTISPACE-1 S15, 62584

Orbit data source: Space-Track

CENTISPACE-1 S15, 62584 is a payload satellite owned by Centispace (CN) in LEO that was launched on Mon, 13 Jan 2025 UTC via a JIELONG-3 launch vehicle from the Yellow Sea Launch Area, China (YSLA). Payload-class satellites include a variety of spacecraft equipped with specific instruments for various scientific and technological missions. These include communications satellites like Starlink; space stations such as the ISS; scientific satellites like the Hubble; Earth observation satellites from companies like Planet Labs, Umbra, and HawkEye 360; GPS; miniature CubeSats for education and research; and military/defense satellites.

Loading next visibility...
Identifier
62584, 2025-007K
Orbit
LEO
Country
Flag of CNCN / PRC
Related business
Manufacturer
HITSAT
Mission
Operational Commercial Nav/Com
Bus & Motor
WK01H, Unknown motor
Mass
140 kg wet, 140 kg dry
Launch date (UTC)
2025-01-13 (1 year ago)
Launch vehicle
JIELONG-3
Launch site
Yellow Sea Launch Area, China (YSLA)
Object type
Payload
Rocket body
Debris
Shape & HBR
Box + 2 Pan, 1.0 m
Radar Cross Section
0.833 m², Large (>1 m²)

Expand to show TLE details & history
Last TLE update: 16 hours ago

TLE from 16 hours ago
0 CENTISPACE-1 S15
1 62584U 25007K   26034.08356323  .00000020  00000-0  11616-3 0  9994
2 62584  54.9936  43.6967 0011109 261.4981  98.4724 13.98319492 56173
Epoch: 2026-02-03T02:00Z
TLE epoch observation values (Epoch: 2026-02-03T02:00:19.863Z)
Latitude
-0.00005°
Longitude
-119.65569°
Altitude
901.851 km
Speed
7.401 km/s
True Right ascension
02h 54m 47s
True Declination
0° 00' 00"
Sunlit
Object was in daylight at epoch
Visualization orbit readout
Latitude
Unknown
Longitude
Unknown
Altitude
Unknown
Speed
Unknown
Apparent Right ascension
Unknown
Apparent Declination
Unknown
Sunlit
N/A
Visualization observer readout
Local Sidereal Time
20:14:20
Azimuth
Unknown
Elevation
Unknown
Doppler factor
Unknown
Orbital elements
Apogee altitude
907.671 km
Perigee altitude
891.501 km
Semi-major axis
7,277.723 km
Eccentricity
0.00111
Inclination
54.9936°
RAAN
43.6967°
Arg. of periapsis
261.4981°
True anomaly
98.59828°
Mean anomaly
98.4724°
Eccentric anomaly
98.53534°
Mean motion
3.49583 °/min
Orbital period
102.98 mins
BSTAR
0.00011616
Loading maneuver chart data...
Computing Atmospheric mass density...
Loading historical data...
Loading historical data...
Loading historical data...
Loading historical data...
Loading historical data...
Loading historical data...
Loading historical data...

Documentation

Showing up to 5 results
|